Tracking 33485 objects as of 15-Mar-2026
HD Live streaming from Space Station
objects crossing your sky now

STARLINK-35556

Track STARLINK-35556 now!
10-day predictions
STARLINK-35556 is classified as:


NORAD ID: 66238
Int'l Code: 2025-245E
Perigee: 482.0 km
Apogee: 482.5 km
Inclination: 53.2 °
Period: 94.1 minutes
Semi major axis: 6853 km
RCS: Unknown
Launch date: October 29, 2025
Source: United States (US)
Launch site: AIR FORCE EASTERN TEST RANGE (AFETR)
Your satellite tracking list
Your tracking list is empty




NASA's NSSDC Master Catalog

Two Line Element Set (TLE):
1 66238U 25245E   26073.90762677  .00043314  00000-0  14650-2 0  9998
2 66238  53.1585 259.7853 0000381 147.9533 212.1491 15.30223359 22059
Source of the keplerian elements: AFSPC